Regional Weather Roundup
Issued by NWS

Home | Current Version | Previous Version | Graphics & Text | Print | Product List | Glossary On
Versions: 1 2 3 4 5 6 7 8 9 10 11 12 13 14 15 16 17 18 19 20 21 22 23 24 25 26 27 28 29 30 31 32 33 34 35 36 37 38 39 40 41 42 43 44 45 46 47 48 49 50
000
ASUS43 KFSD 232110
RWRSD

WEATHER ROUNDUP FOR SOUTH DAKOTA
NATIONAL WEATHER SERVICE SIOUX FALLS SD
400 PM CDT TUE AUG 23 2016

NOTE: "FAIR" INDICATES FEW OR NO CLOUDS BELOW 12,000 FEET WITH NO
SIGNIFICANT WEATHER AND/OR OBSTRUCTIONS TO VISIBILITY.


SDZ001>005-009-010-012>017-232200-
NORTHWEST AND NORTH CENTRAL SOUTH DAKOTA

CITY           SKY/WX    TMP DP  RH WIND       PRES   REMARKS
BUFFALO          N/A     77  33  20 NW26G35   29.88S
FAITH            N/A     83  32  16 NW26G32   29.87R
MOBRIDGE       PTSUNNY   86  44  23 N24G30    29.76R
$$

SDZ012>016-024>037-041>051-057-063-072>074-232200-
SOUTHWEST AND SOUTH CENTRAL SOUTH DAKOTA

CITY           SKY/WX    TMP DP  RH WIND       PRES   REMARKS
RAPID CTY ARPT SUNNY     79  30  16 N23G31    29.94S
PIERRE         MOSUNNY   85  55  35 N23G30    29.77R
CUSTER         SUNNY     78  24  13 W12G20    30.05R
ELLSWORTH AFB  SUNNY     80  32  17 NW22G29   29.94R
PHILIP         MOSUNNY   86  35  16 NW26G33   29.85R
PINE RIDGE     SUNNY     84  35  17 N20G25    29.94R
WINNER         FAIR      87  55  33 NW17G25   29.79R
$$

SDZ004>011-016>023-039-040-232200-
NORTHEAST SOUTH DAKOTA

CITY           SKY/WX    TMP DP  RH WIND       PRES   REMARKS
ABERDEEN       SUNNY     88  64  44 S21G31    29.70F
WATERTOWN      SUNNY     79  65  62 S24G32    29.79R
BROOKINGS      LGT RAIN  71  68  90 S13       29.81F
SISSETON         N/A     86  62  44 SW21G31   29.74S
$$

SDZ017-020-022-023-036>040-048>070-232200-
SOUTHEAST SOUTH DAKOTA

CITY           SKY/WX    TMP DP  RH WIND       PRES   REMARKS
SIOUX FALLS    CLOUDY    71  66  84 S13       29.83R
HURON          PTSUNNY   82  69  64 S17G24    29.73S
CHAMBERLAIN    SUNNY     90  58  34 W15       29.74R
MITCHELL       CLOUDY    79  69  71 S13       29.76F
YANKTON        CLOUDY    75  68  78 SE12      29.78F
$$

ABBREVIATIONS USED IN REMARKS
   TC - TEMPERATURE IN CELSIUS
  WCI - WIND CHILL INDEX
   HX - HEAT INDEX
  VSB - VISIBILITY





USA.gov is the U.S. government's official web portal to all federal, state and local government web resources and services.